Home   Weather   Paris Street Park   Past weeks
Flag for USA

Past Weather in Paris Street Park, Ohio, USA — Yesterday and Last 2 Weeks

Now
69 °F

Passing clouds.


Feels Like: 69 °F
Forecast: 77 / 52 °F
Wind: 6 mph from Southeast

Location: Cox Dayton International Airport
Current Time: Oct 22, 2020 at 8:23:58 pm
Latest Report: Oct 22, 2020 at 7:56 pm
Visibility: 10 mi
Pressure30.09 "Hg
Humidity: 79%
Dew Point: 62 °F
Location of Paris Street ParkLocation

Past Weather in Paris Street Park — Graph

°F

Paris Street Park Temperature Yesterday

Maximum temperature yesterday: 66 °F (at 10:56 am)
Minimum temperature yesterday: 57 °F (at 12:56 am)
Average temperature yesterday: 62 °F

High & Low Weather Summary for the Past Weeks

 TemperatureHumidityPressure
High80 °F (Oct 22, 3:56 pm)100% (Oct 19, 8:56 am)30.34 "Hg (Oct 19, 8:56 am)
Low36 °F (Oct 16, 6:56 am)21% (Oct 17, 3:56 pm)29.72 "Hg (Oct 12, 6:56 pm)
Average59 °F71%30.08 "Hg
* Reported Oct 7 6:56 pm — Oct 22 6:56 pm, Paris Street Park. Weather by CustomWeather, © 2020

Note: Actual official high and low records may vary slightly from our data, if they occured in-between our weather recording intervals... More about our weather records

Paris Street Park Weather History for the Previous 24 Hours

Scroll right to see more
 ConditionsComfort  
Time TempWeatherWind HumidityBarometerVisibility
6:56 pm
Thu, Oct 22
73 °FPassing clouds.5 mph71%30.09 "Hg10 mi
5:56 pm77 °FScattered clouds.7 mph62%30.08 "Hg10 mi
4:56 pm79 °FScattered clouds.10 mph58%30.09 "Hg10 mi
3:56 pm80 °FScattered clouds.12 mph58%30.08 "Hg10 mi
2:56 pm79 °FScattered clouds.13 mph60%30.10 "Hg10 mi
1:56 pm78 °FBroken clouds.13 mph64%30.11 "Hg10 mi
12:56 pm76 °FPassing clouds.14 mph69%30.14 "Hg10 mi
11:56 am73 °FScattered clouds.10 mph76%30.16 "Hg10 mi
10:56 am68 °FScattered clouds.8 mph84%30.18 "Hg10 mi
9:56 am65 °FScattered clouds.10 mph91%30.19 "Hg10 mi
8:56 am62 °FScattered clouds.8 mph96%30.18 "Hg10 mi
7:56 am58 °FFog.8 mph100%30.17 "Hg6 mi
6:56 am58 °FFog.7 mph100%30.17 "Hg5 mi
5:56 am59 °FFog.8 mph100%30.16 "Hg4 mi
5:10 am59 °FFog.8 mph100%30.16 "Hg2 mi
4:56 am58 °FFog.8 mph100%30.15 "Hg1 mi
4:26 am58 °FFog.8 mph100%30.15 "Hg1 mi
4:18 am57 °FFog.8 mph100%30.15 "Hg0 mi
3:56 am57 °FFog.7 mph100%30.15 "Hg0 mi
3:38 am56 °FFog.No wind100%30.16 "Hg0 mi
3:17 am57 °FFog.6 mph100%30.17 "Hg1 mi
2:03 am59 °FFog.8 mph100%30.17 "Hg4 mi
1:56 am59 °FFog.7 mph100%30.16 "Hg2 mi
1:35 am58 °FFog.6 mph100%30.17 "Hg1 mi
1:13 am59 °FFog.3 mph100%30.18 "Hg4 mi
12:56 am60 °FFog.7 mph100%30.17 "Hg6 mi
11:56 pm
Wed, Oct 21
60 °FFog.9 mph100%30.18 "Hg6 mi
10:56 pm60 °FOvercast.7 mph100%30.19 "Hg7 mi
9:56 pm61 °FOvercast.5 mph97%30.20 "Hg9 mi
8:56 pm61 °FMostly cloudy.3 mph97%30.20 "Hg10 mi
Weather by CustomWeather, © 2020

See weather overview